Home   Weather   Charleroi   Past weeks

Flag for Belgium Past Weather in Charleroi, Belgium — Yesterday and Last 2 Weeks

Now
57 °F

Partly sunny.


Feels Like: 56 °F
Forecast: 55 / 67 °F
Wind: 7 mph from West

Location: Charleroi / Gosselies

Current Time: Jul 24, 2017 at 9:00:00 am

Latest Report: Jul 24, 2017 at 8:20 am


Visibility: 6 mi

Pressure: 29.83 "Hg

Humidity: 94%

Dew Point: 55 °F

Location of CharleroiLocation

Past Weather in Charleroi — Graph

°F

Charleroi Temperature Yesterday

Maximum temperature yesterday: 64 °F (at 6:20 pm)
Minimum temperature yesterday: 54 °F (at 2:50 am)
Average temperature yesterday: 58 °F

High & Low Weather Summary for the Past Weeks

 TemperatureHumidityPressure
High86 °F (Jul 19, 5:20 pm)100% (Jul 12, 8:50 am)30.24 "Hg (Jul 12, 8:50 am)
Low48 °F (Jul 13, 4:50 am)34% (Jul 21, 3:50 pm)29.74 "Hg (Jul 12, 8:50 am)
Average65 °F69%29.99 "Hg
* Reported Jul 9 7:20 am — Jul 24 7:20 am, Charleroi. Weather by CustomWeather, © 2017

Note: Actual official high and low records may vary slightly from our data, if they occured in-between our weather recording intervals... More about our weather records

Advertising

Charleroi Weather History for the Previous 24 Hours

Scroll right to see more
 ConditionsComfort  
Time TempWeatherWind HumidityBarometerVisibility
7:20 am
Mon, Jul 24
55 °FBroken clouds.7 mph94%29.83 "Hg4 mi
6:50 am55 °FPartly sunny.8 mph94%29.83 "HgN/A
6:20 am55 °FScattered clouds.7 mph94%29.83 "HgN/A
5:50 am55 °FSprinkles. Passing clouds.8 mph94%29.83 "HgN/A
5:20 am55 °FSprinkles. Passing clouds.6 mph94%29.83 "HgN/A
4:20 am55 °FPassing clouds.7 mph94%29.83 "HgN/A
3:50 am55 °FSprinkles. Passing clouds.8 mph94%29.86 "HgN/A
3:20 am57 °FSprinkles. Passing clouds.9 mph88%29.86 "Hg5 mi
2:50 am57 °FSprinkles. Passing clouds.6 mph88%29.86 "Hg5 mi
2:20 am57 °FSprinkles. Passing clouds.5 mph82%29.89 "HgN/A
1:50 am57 °FPassing clouds.6 mph82%29.89 "HgN/A
1:20 am57 °FPassing clouds.7 mph82%29.89 "HgN/A
12:50 am57 °FPassing clouds.6 mph88%29.92 "HgN/A
12:20 am57 °FPassing clouds.7 mph88%29.92 "HgN/A
11:50 pm
Sun, Jul 23
57 °FPassing clouds.6 mph88%29.92 "HgN/A
11:20 pm57 °FPassing clouds.8 mph88%29.92 "HgN/A
10:20 pm59 °FSprinkles. Passing clouds.8 mph82%29.95 "HgN/A
9:50 pm59 °FPassing clouds.8 mph88%29.95 "HgN/A
9:20 pm59 °FScattered clouds.8 mph88%29.95 "HgN/A
8:20 pm59 °FScattered clouds.9 mph88%29.95 "HgN/A
7:50 pm59 °FSprinkles. Passing clouds.10 mph88%29.95 "HgN/A
7:20 pm57 °FSprinkles. Passing clouds.14 mph94%29.95 "Hg5 mi
6:50 pm63 °FPassing clouds.13 mph73%29.95 "HgN/A
6:20 pm64 °FPassing clouds.13 mph68%29.95 "HgN/A
5:20 pm61 °FPassing clouds.14 mph83%29.95 "HgN/A
4:50 pm63 °FPassing clouds.14 mph77%29.98 "HgN/A
4:20 pm61 °FSprinkles. Passing clouds.13 mph83%29.98 "HgN/A
3:50 pm59 °FSprinkles. Passing clouds.12 mph88%29.98 "HgN/A
3:20 pm59 °FSprinkles. Broken clouds.13 mph88%29.98 "HgN/A
2:50 pm61 °FSprinkles. Broken clouds.14 mph77%29.98 "Hg6 mi
2:20 pm63 °FBroken clouds.14 mph68%29.98 "HgN/A
1:50 pm61 °FBroken clouds.17 mph72%29.98 "HgN/A
1:20 pm61 °FBroken clouds.16 mph77%29.98 "HgN/A
12:50 pm57 °FSprinkles. Broken clouds.18 mph82%29.98 "HgN/A
12:20 pm57 °FSprinkles. Broken clouds.15 mph82%29.98 "HgN/A
11:50 am59 °FSprinkles. Broken clouds.17 mph77%29.95 "HgN/A
11:20 am59 °FBroken clouds.16 mph77%29.95 "HgN/A
10:50 am59 °FBroken clouds.17 mph77%29.95 "HgN/A
10:20 am57 °FBroken clouds.15 mph82%29.95 "HgN/A
9:50 am57 °FBroken clouds.15 mph82%29.95 "HgN/A
9:20 am57 °FScattered clouds.15 mph82%29.95 "HgN/A
Weather by CustomWeather, © 2017

See weather overviewHow to use our weather pages